| time (UTC) | temp C | wind direction | speed KPH | gust KPH | rain 1hr cm | rain 24hr cm | rain mn cm | humidity % | barometer mb |
| 20260508052359 | 12 | 325 | 1.6 | 3.2 | 0.00 | 0.00 | 0.00 | 84 | 1019.7 |
| 20260508051855 | 12 | 316 | 1.6 | 3.2 | 0.00 | 0.00 | 0.00 | 83 | 1019.5 |
| 20260508051350 | 12 | 65 | 0.0 | 1.6 | 0.00 | 0.00 | 0.00 | 79 | 1019.7 |
| 20260508050847 | 12 | 8 | 1.6 | 3.2 | 0.00 | 0.00 | 0.00 | 83 | 1019.6 |
| 20260508050344 | 12 | 296 | 4.8 | 4.8 | 0.00 | 0.00 | 0.00 | 85 | 1019.6 |
| 20260508045840 | 12 | 301 | 4.8 | 4.8 | 0.00 | 0.00 | 0.00 | 85 | 1019.7 |
| 20260508045337 | 12 | 303 | 3.2 | 4.8 | 0.00 | 0.00 | 0.00 | 85 | 1019.5 |
| 20260508044835 | 12 | 302 | 3.2 | 4.8 | 0.00 | 0.00 | 0.00 | 86 | 1019.7 |
| 20260508044331 | 12 | 297 | 3.2 | 4.8 | 0.00 | 0.00 | 0.00 | 86 | 1019.7 |
| 20260508043827 | 12 | 301 | 4.8 | 4.8 | 0.00 | 0.00 | 0.00 | 87 | 1019.7 |
| 20260508043324 | 12 | 279 | 3.2 | 4.8 | 0.00 | 0.00 | 0.00 | 87 | 1019.3 |
| 20260508042821 | 12 | 284 | 3.2 | 4.8 | 0.00 | 0.00 | 0.00 | 86 | 1019.2 |
| 20260508042319 | 12 | 293 | 3.2 | 4.8 | 0.00 | 0.00 | 0.00 | 86 | 1019.4 |
| 20260508041815 | 12 | 289 | 3.2 | 4.8 | 0.00 | 0.00 | 0.00 | 86 | 1019.4 |
| 20260508041312 | 12 | 309 | 3.2 | 3.2 | 0.00 | 0.00 | 0.00 | 85 | 1019.5 |
| 20260508040808 | 12 | 308 | 3.2 | 4.8 | 0.00 | 0.00 | 0.00 | 85 | 1019.4 |
| 20260508040306 | 12 | 297 | 3.2 | 4.8 | 0.00 | 0.00 | 0.00 | 86 | 1019.7 |
| 20260508035803 | 12 | 289 | 3.2 | 4.8 | 0.00 | 0.56 | 0.56 | 85 | 1019.4 |
| 20260508035300 | 12 | 299 | 3.2 | 4.8 | 0.00 | 0.56 | 0.56 | 86 | 1019.4 |
| 20260508034756 | 12 | 297 | 3.2 | 4.8 | 0.00 | 0.56 | 0.56 | 86 | 1019.4 |
| 20260508034254 | 12 | 294 | 3.2 | 4.8 | 0.00 | 0.56 | 0.56 | 87 | 1019.5 |
| 20260508033751 | 12 | 302 | 3.2 | 4.8 | 0.00 | 0.56 | 0.56 | 86 | 1019.4 |
| 20260508033249 | 12 | 300 | 3.2 | 4.8 | 0.00 | 0.56 | 0.56 | 85 | 1019.4 |
| 20260508032746 | 12 | 289 | 3.2 | 4.8 | 0.00 | 0.56 | 0.56 | 86 | 1019.4 |
| 20260508032243 | 12 | 285 | 3.2 | 4.8 | 0.00 | 0.56 | 0.56 | 88 | 1019.3 |
| 20260508031740 | 12 | 295 | 3.2 | 4.8 | 0.00 | 0.56 | 0.56 | 88 | 1019.4 |
| 20260508031236 | 12 | 291 | 3.2 | 3.2 | 0.00 | 0.56 | 0.56 | 89 | 1019.2 |
| 20260508030733 | 13 | 300 | 3.2 | 4.8 | 0.00 | 0.56 | 0.56 | 90 | 1019.1 |
| 20260508030230 | 12 | 306 | 3.2 | 4.8 | 0.00 | 0.56 | 0.56 | 90 | 1019.0 |
| 20260508025727 | 12 | 302 | 3.2 | 4.8 | 0.00 | 0.56 | 0.56 | 90 | 1019.0 |
| 20260508025224 | 12 | 297 | 3.2 | 4.8 | 0.00 | 0.56 | 0.56 | 90 | 1019.1 |
| 20260508024720 | 12 | 308 | 3.2 | 4.8 | 0.00 | 0.56 | 0.56 | 90 | 1019.0 |
| 20260508024217 | 12 | 288 | 3.2 | 4.8 | 0.00 | 0.56 | 0.56 | 90 | 1018.9 |
| 20260508023713 | 12 | 302 | 4.8 | 4.8 | 0.00 | 0.56 | 0.56 | 90 | 1019.0 |
| 20260508023211 | 12 | 279 | 3.2 | 4.8 | 0.00 | 0.56 | 0.56 | 91 | 1018.7 |
| 20260508022706 | 12 | 287 | 4.8 | 4.8 | 0.00 | 0.56 | 0.56 | 91 | 1018.9 |
| 20260508022204 | 12 | 287 | 3.2 | 4.8 | 0.00 | 0.56 | 0.56 | 91 | 1019.2 |
| 20260508021700 | 12 | 287 | 4.8 | 4.8 | 0.00 | 0.56 | 0.56 | 91 | 1019.0 |
| 20260508021155 | 12 | 300 | 4.8 | 6.4 | 0.00 | 0.56 | 0.56 | 91 | 1018.9 |
| 20260508020654 | 12 | 297 | 3.2 | 4.8 | 0.00 | 0.56 | 0.56 | 91 | 1019.1 |
| 20260508020151 | 12 | 293 | 4.8 | 4.8 | 0.00 | 0.56 | 0.56 | 91 | 1018.9 |
| 20260508015648 | 12 | 285 | 4.8 | 4.8 | 0.00 | 0.56 | 0.56 | 91 | 1018.9 |
| 20260508015145 | 12 | 295 | 3.2 | 4.8 | 0.00 | 0.56 | 0.56 | 91 | 1018.7 |
| 20260508014641 | 13 | 286 | 4.8 | 4.8 | 0.00 | 0.56 | 0.56 | 91 | 1018.8 |
| 20260508014137 | 12 | 283 | 3.2 | 4.8 | 0.00 | 0.56 | 0.56 | 91 | 1018.8 |
| 20260508013634 | 13 | 287 | 3.2 | 3.2 | 0.00 | 0.56 | 0.56 | 90 | 1018.5 |
| 20260508013131 | 13 | 296 | 3.2 | 4.8 | 0.00 | 0.56 | 0.56 | 90 | 1018.7 |
| 20260508012628 | 13 | 289 | 3.2 | 3.2 | 0.00 | 0.56 | 0.56 | 89 | 1018.5 |
| 20260508012125 | 13 | 302 | 3.2 | 3.2 | 0.00 | 0.56 | 0.56 | 89 | 1018.4 |
| 20260508011624 | 13 | 297 | 3.2 | 3.2 | 0.00 | 0.56 | 0.56 | 88 | 1018.3 |
| 20260508011120 | 13 | 302 | 3.2 | 3.2 | 0.00 | 0.56 | 0.56 | 88 | 1018.2 |
| 20260508010617 | 13 | 294 | 3.2 | 3.2 | 0.00 | 0.56 | 0.56 | 87 | 1017.9 |
| 20260508010115 | 13 | 282 | 3.2 | 3.2 | 0.00 | 0.56 | 0.56 | 86 | 1018.0 |
| 20260508005611 | 13 | 296 | 3.2 | 4.8 | 0.00 | 0.56 | 0.56 | 85 | 1018.1 |
| 20260508005108 | 14 | 297 | 3.2 | 3.2 | 0.00 | 0.56 | 0.56 | 85 | 1017.9 |
| 20260508004604 | 14 | 306 | 3.2 | 4.8 | 0.00 | 0.56 | 0.56 | 85 | 1017.8 |
| 20260508004101 | 14 | 295 | 3.2 | 3.2 | 0.00 | 0.56 | 0.56 | 85 | 1017.7 |
| 20260508003557 | 14 | 298 | 1.6 | 3.2 | 0.00 | 0.56 | 0.56 | 85 | 1017.6 |
| 20260508003055 | 15 | 292 | 1.6 | 3.2 | 0.00 | 0.56 | 0.56 | 85 | 1017.7 |
| 20260508002551 | 15 | 287 | 1.6 | 3.2 | 0.00 | 0.56 | 0.56 | 84 | 1017.5 |
| 20260508002049 | 15 | 286 | 1.6 | 3.2 | 0.00 | 0.56 | 0.56 | 83 | 1017.6 |
| 20260508001544 | 15 | 285 | 1.6 | 3.2 | 0.00 | 0.56 | 0.56 | 83 | 1017.5 |
| 20260508001041 | 16 | 264 | 1.6 | 3.2 | 0.00 | 0.56 | 0.56 | 81 | 1017.5 |
| 20260508000537 | 16 | 253 | 1.6 | 3.2 | 0.00 | 0.56 | 0.56 | 82 | 1017.3 |
| 20260508000034 | 16 | 280 | 1.6 | 4.8 | 0.00 | 0.56 | 0.56 | 78 | 1017.4 |
| 20260507235531 | 16 | 285 | 1.6 | 1.6 | 0.00 | 0.56 | 0.56 | 76 | 1017.4 |
| 20260507235028 | 17 | 283 | 1.6 | 1.6 | 0.00 | 0.56 | 0.56 | 74 | 1017.3 |
| 20260507234524 | 17 | 240 | 0.0 | 1.6 | 0.00 | 0.56 | 0.56 | 73 | 1017.2 |
| 20260507234021 | 17 | 278 | 1.6 | 3.2 | 0.00 | 0.56 | 0.56 | 73 | 1017.2 |
| 20260507233518 | 18 | 276 | 1.6 | 3.2 | 0.00 | 0.56 | 0.56 | 72 | 1017.0 |
| 20260507233017 | 18 | 300 | 4.8 | 4.8 | 0.00 | 0.56 | 0.56 | 63 | 1017.0 |
| 20260507232512 | 18 | 329 | 3.2 | 4.8 | 0.00 | 0.56 | 0.56 | 64 | 1017.3 |
| 20260507232010 | 19 | 281 | 3.2 | 4.8 | 0.00 | 0.56 | 0.56 | 64 | 1017.0 |
| 20260507231506 | 20 | 195 | 0.0 | 1.6 | 0.00 | 0.56 | 0.56 | 63 | 1017.5 |
| 20260507231003 | 20 | 185 | 0.0 | 1.6 | 0.00 | 0.56 | 0.56 | 62 | 1017.2 |
| 20260507230500 | 20 | 299 | 3.2 | 4.8 | 0.00 | 0.56 | 0.56 | 60 | 1017.0 |
| 20260507225955 | 20 | 114 | 1.6 | 3.2 | 0.00 | 0.56 | 0.56 | 60 | 1016.9 |
| 20260507225452 | 20 | 334 | 3.2 | 3.2 | 0.00 | 0.56 | 0.56 | 59 | 1017.1 |
| 20260507224948 | 20 | 307 | 1.6 | 6.4 | 0.00 | 0.56 | 0.56 | 60 | 1016.9 |
| 20260507224444 | 20 | 325 | 3.2 | 9.7 | 0.00 | 0.56 | 0.56 | 59 | 1017.2 |
| 20260507223941 | 20 | 72 | 1.6 | 6.4 | 0.00 | 0.56 | 0.56 | 58 | 1017.1 |
| 20260507223437 | 21 | 342 | 1.6 | 4.8 | 0.00 | 0.56 | 0.56 | 57 | 1017.2 |
| 20260507222935 | 20 | 357 | 1.6 | 3.2 | 0.00 | 0.56 | 0.56 | 57 | 1017.1 |
| 20260507222431 | 20 | 329 | 3.2 | 9.7 | 0.00 | 0.56 | 0.56 | 57 | 1017.1 |
| 20260507221927 | 21 | 309 | 3.2 | 4.8 | 0.00 | 0.56 | 0.56 | 58 | 1016.8 |
| 20260507221424 | 21 | 283 | 4.8 | 6.4 | 0.00 | 0.56 | 0.56 | 57 | 1016.9 |
| 20260507220920 | 21 | 260 | 1.6 | 3.2 | 0.00 | 0.56 | 0.56 | 57 | 1016.9 |
| 20260507220418 | 21 | 185 | 0.0 | 3.2 | 0.00 | 0.56 | 0.56 | 57 | 1016.9 |
| 20260507215914 | 20 | 97 | 3.2 | 4.8 | 0.00 | 0.56 | 0.56 | 62 | 1016.9 |
| 20260507215411 | 20 | 233 | 0.0 | 1.6 | 0.00 | 0.56 | 0.56 | 63 | 1017.0 |
| 20260507214908 | 20 | 329 | 3.2 | 4.8 | 0.00 | 0.56 | 0.56 | 59 | 1016.9 |
| 20260507214406 | 20 | 20 | 3.2 | 4.8 | 0.00 | 0.56 | 0.56 | 59 | 1016.9 |
| 20260507213901 | 20 | 158 | 0.0 | 4.8 | 0.00 | 0.56 | 0.56 | 60 | 1016.9 |
| 20260507213358 | 20 | 247 | 4.8 | 6.4 | 0.00 | 0.56 | 0.56 | 59 | 1016.9 |
| 20260507212855 | 20 | 299 | 4.8 | 4.8 | 0.00 | 0.56 | 0.56 | 60 | 1016.7 |
| 20260507212351 | 20 | 268 | 6.4 | 9.7 | 0.00 | 0.56 | 0.56 | 58 | 1016.7 |
| 20260507211848 | 20 | 239 | 3.2 | 6.4 | 0.00 | 0.56 | 0.56 | 59 | 1016.8 |
| 20260507211344 | 20 | 303 | 0.0 | 6.4 | 0.00 | 0.56 | 0.56 | 59 | 1016.6 |
| 20260507210842 | 20 | 37 | 4.8 | 6.4 | 0.00 | 0.56 | 0.56 | 60 | 1016.6 |
| 20260507210338 | 20 | 279 | 4.8 | 11.3 | 0.00 | 0.56 | 0.56 | 59 | 1016.7 |
| 20260507205835 | 20 | 272 | 3.2 | 6.4 | 0.00 | 0.56 | 0.56 | 61 | 1016.5 |
| 20260507205332 | 20 | 46 | 1.6 | 4.8 | 0.00 | 0.56 | 0.56 | 62 | 1016.6 |
| 20260507204827 | 20 | 262 | 4.8 | 11.3 | 0.00 | 0.56 | 0.56 | 61 | 1016.6 |
| 20260507204325 | 20 | 260 | 4.8 | 9.7 | 0.00 | 0.56 | 0.56 | 64 | 1016.4 |
| 20260507203823 | 19 | 49 | 3.2 | 3.2 | 0.00 | 0.56 | 0.56 | 64 | 1016.4 |
| 20260507203321 | 19 | 288 | 1.6 | 3.2 | 0.00 | 0.56 | 0.56 | 66 | 1016.4 |
| 20260507202816 | 20 | 271 | 1.6 | 3.2 | 0.00 | 0.56 | 0.56 | 68 | 1016.6 |
| 20260507202313 | 19 | 272 | 1.6 | 4.8 | 0.00 | 0.56 | 0.56 | 69 | 1016.4 |
| 20260507201808 | 19 | 177 | 3.2 | 4.8 | 0.00 | 0.56 | 0.56 | 71 | 1016.4 |
| 20260507201304 | 19 | 173 | 0.0 | 0.0 | 0.00 | 0.56 | 0.56 | 72 | 1016.7 |
| 20260507200801 | 18 | 83 | 3.2 | 4.8 | 0.00 | 0.56 | 0.56 | 74 | 1016.6 |
| 20260507200257 | 18 | 83 | 1.6 | 3.2 | 0.00 | 0.56 | 0.56 | 73 | 1016.4 |
| 20260507195753 | 18 | 96 | 3.2 | 3.2 | 0.00 | 0.56 | 0.56 | 73 | 1016.4 |
| 20260507195250 | 18 | 95 | 3.2 | 3.2 | 0.00 | 0.56 | 0.56 | 74 | 1016.5 |
| 20260507194748 | 18 | 90 | 1.6 | 3.2 | 0.00 | 0.56 | 0.56 | 73 | 1016.6 |
| 20260507194243 | 18 | 124 | 0.0 | 1.6 | 0.00 | 0.56 | 0.56 | 71 | 1016.5 |
| 20260507193740 | 18 | 39 | 1.6 | 3.2 | 0.00 | 0.56 | 0.56 | 73 | 1016.7 |
| 20260507193237 | 18 | 50 | 3.2 | 4.8 | 0.00 | 0.56 | 0.56 | 74 | 1016.7 |
| 20260507192733 | 18 | 93 | 3.2 | 3.2 | 0.00 | 0.56 | 0.56 | 74 | 1016.9 |
| 20260507192230 | 18 | 86 | 3.2 | 3.2 | 0.00 | 0.56 | 0.56 | 72 | 1016.8 |
| 20260507191726 | 17 | 53 | 1.6 | 3.2 | 0.00 | 0.56 | 0.56 | 74 | 1016.7 |
| 20260507191223 | 18 | 111 | 1.6 | 3.2 | 0.00 | 0.56 | 0.56 | 73 | 1016.9 |
| 20260507190720 | 18 | 129 | 0.0 | 1.6 | 0.00 | 0.56 | 0.56 | 72 | 1016.8 |
| 20260507190219 | 18 | 166 | 1.6 | 1.6 | 0.00 | 0.56 | 0.56 | 73 | 1017.0 |
| 20260507185717 | 17 | 87 | 0.0 | 3.2 | 0.00 | 0.56 | 0.56 | 74 | 1017.1 |
| 20260507185214 | 17 | 156 | 1.6 | 3.2 | 0.00 | 0.56 | 0.56 | 74 | 1017.1 |
| 20260507184711 | 17 | 116 | 1.6 | 3.2 | 0.00 | 0.56 | 0.56 | 75 | 1017.3 |
| 20260507184209 | 17 | 92 | 3.2 | 4.8 | 0.00 | 0.56 | 0.56 | 73 | 1017.3 |
| 20260507183705 | 18 | 115 | 0.0 | 4.8 | 0.00 | 0.56 | 0.56 | 72 | 1017.0 |
| 20260507183202 | 18 | 118 | 3.2 | 3.2 | 0.00 | 0.56 | 0.56 | 72 | 1016.9 |
| 20260507182659 | 17 | 111 | 0.0 | 3.2 | 0.00 | 0.56 | 0.56 | 73 | 1017.2 |
| 20260507182154 | 17 | 108 | 3.2 | 4.8 | 0.00 | 0.56 | 0.56 | 77 | 1017.0 |
| 20260507181651 | 17 | 107 | 1.6 | 4.8 | 0.00 | 0.56 | 0.56 | 74 | 1017.3 |
| 20260507181148 | 17 | 97 | 3.2 | 3.2 | 0.00 | 0.56 | 0.56 | 75 | 1017.2 |
| 20260507180644 | 17 | 104 | 3.2 | 3.2 | 0.00 | 0.56 | 0.56 | 76 | 1017.2 |
| 20260507180142 | 16 | 95 | 1.6 | 4.8 | 0.00 | 0.56 | 0.56 | 76 | 1017.1 |
| 20260507175637 | 16 | 105 | 4.8 | 6.4 | 0.00 | 0.56 | 0.56 | 78 | 1017.2 |
| 20260507175135 | 16 | 97 | 6.4 | 6.4 | 0.00 | 0.56 | 0.56 | 79 | 1017.5 |
| 20260507174631 | 16 | 118 | 3.2 | 6.4 | 0.00 | 0.56 | 0.56 | 77 | 1017.4 |
| 20260507174130 | 16 | 93 | 4.8 | 6.4 | 0.00 | 0.56 | 0.56 | 78 | 1017.3 |
| 20260507173626 | 16 | 70 | 6.4 | 6.4 | 0.00 | 0.56 | 0.56 | 78 | 1017.5 |
| 20260507173124 | 16 | 82 | 4.8 | 4.8 | 0.00 | 0.56 | 0.56 | 77 | 1017.7 |
| 20260507172619 | 16 | 39 | 1.6 | 6.4 | 0.00 | 0.56 | 0.56 | 77 | 1017.8 |
| 20260507172117 | 16 | 61 | 6.4 | 6.4 | 0.00 | 0.56 | 0.56 | 77 | 1017.8 |
| 20260507171612 | 16 | 77 | 3.2 | 4.8 | 0.00 | 0.56 | 0.56 | 76 | 1017.9 |
| 20260507171109 | 16 | 64 | 3.2 | 4.8 | 0.00 | 0.56 | 0.56 | 79 | 1017.9 |
| 20260507170606 | 16 | 86 | 6.4 | 6.4 | 0.00 | 0.56 | 0.56 | 77 | 1017.9 |
| 20260507170103 | 16 | 42 | 1.6 | 9.7 | 0.00 | 0.56 | 0.56 | 79 | 1017.8 |
| 20260507165558 | 16 | 45 | 3.2 | 6.4 | 0.00 | 0.56 | 0.56 | 79 | 1017.7 |
| 20260507165055 | 16 | 72 | 8.0 | 9.7 | 0.00 | 0.56 | 0.56 | 79 | 1017.9 |
| 20260507164551 | 16 | 82 | 6.4 | 6.4 | 0.00 | 0.56 | 0.56 | 78 | 1017.9 |
| 20260507164049 | 16 | 295 | 4.8 | 4.8 | 0.00 | 0.56 | 0.56 | 78 | 1017.8 |
| 20260507163546 | 16 | 75 | 1.6 | 3.2 | 0.00 | 0.56 | 0.56 | 78 | 1017.7 |
| 20260507163044 | 15 | 46 | 3.2 | 4.8 | 0.00 | 0.56 | 0.56 | 80 | 1017.9 |
| 20260507162538 | 15 | 332 | 3.2 | 4.8 | 0.00 | 0.56 | 0.56 | 81 | 1017.7 |
| 20260507162035 | 15 | 279 | 3.2 | 4.8 | 0.00 | 0.56 | 0.56 | 84 | 1017.8 |
| 20260507161532 | 15 | 307 | 4.8 | 4.8 | 0.00 | 0.56 | 0.56 | 85 | 1017.7 |
| 20260507161028 | 15 | 224 | 0.0 | 4.8 | 0.00 | 0.56 | 0.56 | 86 | 1017.7 |
| 20260507160524 | 15 | 296 | 1.6 | 3.2 | 0.00 | 0.56 | 0.56 | 88 | 1017.8 |
| 20260507160021 | 14 | 6 | 3.2 | 3.2 | 0.00 | 0.56 | 0.56 | 88 | 1018.0 |
| 20260507155516 | 15 | 273 | 1.6 | 1.6 | 0.00 | 0.56 | 0.56 | 89 | 1017.9 |
| 20260507155014 | 14 | 48 | 1.6 | 3.2 | 0.00 | 0.56 | 0.56 | 89 | 1018.0 |
| 20260507154510 | 14 | 124 | 0.0 | 1.6 | 0.00 | 0.56 | 0.56 | 89 | 1017.8 |
| 20260507154009 | 14 | 96 | 0.0 | 3.2 | 0.00 | 0.56 | 0.56 | 89 | 1017.7 |
| 20260507153504 | 13 | 126 | 0.0 | 4.8 | 0.00 | 0.56 | 0.56 | 89 | 1017.8 |
| 20260507153000 | 14 | 137 | 0.0 | 1.6 | 0.00 | 0.56 | 0.56 | 91 | 1017.8 |
| 20260507152456 | 14 | 49 | 0.0 | 1.6 | 0.00 | 0.56 | 0.56 | 92 | 1017.7 |
| 20260507151953 | 13 | 332 | 1.6 | 3.2 | 0.00 | 0.56 | 0.56 | 92 | 1017.6 |
| 20260507151449 | 14 | 269 | 1.6 | 3.2 | 0.00 | 0.56 | 0.56 | 93 | 1017.5 |
| 20260507150946 | 14 | 129 | 0.0 | 3.2 | 0.00 | 0.56 | 0.56 | 93 | 1017.5 |
| 20260507150443 | 14 | 29 | 0.0 | 1.6 | 0.00 | 0.56 | 0.56 | 93 | 1017.4 |
| 20260507145939 | 13 | 287 | 0.0 | 3.2 | 0.00 | 0.56 | 0.56 | 94 | 1017.4 |
| 20260507145435 | 13 | 321 | 1.6 | 3.2 | 0.00 | 0.56 | 0.56 | 93 | 1017.5 |
| 20260507144932 | 13 | 306 | 1.6 | 1.6 | 0.00 | 0.56 | 0.56 | 94 | 1017.5 |
| 20260507144429 | 13 | 40 | 0.0 | 4.8 | 0.00 | 0.56 | 0.56 | 94 | 1017.4 |
| 20260507143926 | 13 | 305 | 0.0 | 3.2 | 0.00 | 0.56 | 0.56 | 94 | 1017.6 |
| 20260507143424 | 13 | 323 | 1.6 | 3.2 | 0.00 | 0.56 | 0.56 | 95 | 1017.6 |
| 20260507142920 | 13 | 103 | 0.0 | 1.6 | 0.00 | 0.56 | 0.56 | 96 | 1017.6 |
| 20260507142416 | 13 | 303 | 1.6 | 3.2 | 0.00 | 0.56 | 0.56 | 96 | 1017.3 |
| 20260507141913 | 13 | 48 | 0.0 | 3.2 | 0.00 | 0.56 | 0.56 | 97 | 1017.4 |
| 20260507141409 | 13 | 288 | 3.2 | 3.2 | 0.00 | 0.56 | 0.56 | 97 | 1017.3 |
| 20260507140906 | 13 | 87 | 0.0 | 1.6 | 0.00 | 0.56 | 0.56 | 97 | 1017.3 |
| 20260507140403 | 13 | 112 | 0.0 | 1.6 | 0.00 | 0.56 | 0.56 | 98 | 1017.3 |
| 20260507135901 | 13 | 73 | 0.0 | 3.2 | 0.00 | 0.56 | 0.56 | 98 | 1017.1 |
| 20260507135357 | 13 | 329 | 1.6 | 3.2 | 0.00 | 0.56 | 0.56 | 98 | 1017.4 |
| 20260507134855 | 13 | 195 | 0.0 | 3.2 | 0.00 | 0.56 | 0.56 | 99 | 1017.2 |
| 20260507134350 | 13 | 291 | 1.6 | 3.2 | 0.00 | 0.56 | 0.56 | 99 | 1017.2 |
| 20260507133847 | 13 | 101 | 0.0 | 4.8 | 0.00 | 0.56 | 0.56 | 99 | 1017.2 |
| 20260507133342 | 13 | 33 | 0.0 | 3.2 | 0.00 | 0.56 | 0.56 | 99 | 1017.3 |
| 20260507132841 | 13 | 275 | 1.6 | 3.2 | 0.00 | 0.56 | 0.56 | 99 | 1017.2 |
| 20260507132337 | 13 | 247 | 1.6 | 4.8 | 0.00 | 0.56 | 0.56 | 99 | 1017.0 |
| 20260507131834 | 13 | 270 | 1.6 | 3.2 | 0.00 | 0.56 | 0.56 | 99 | 1017.0 |
| 20260507131331 | 13 | 98 | 0.0 | 3.2 | 0.00 | 0.56 | 0.56 | 99 | 1017.0 |
| 20260507130828 | 13 | 289 | 0.0 | 3.2 | 0.00 | 0.56 | 0.56 | 99 | 1016.5 |
| 20260507130325 | 13 | 17 | 1.6 | 4.8 | 0.00 | 0.56 | 0.56 | 99 | 1016.7 |
| 20260507125824 | 12 | 336 | 3.2 | 6.4 | 0.00 | 0.56 | 0.56 | 99 | 1016.5 |
| 20260507125321 | 13 | 266 | 1.6 | 3.2 | 0.00 | 0.56 | 0.56 | 99 | 1016.5 |
| 20260507124818 | 13 | 337 | 1.6 | 3.2 | 0.00 | 0.56 | 0.56 | 99 | 1016.7 |
| 20260507124314 | 13 | 6 | 1.6 | 1.6 | 0.00 | 0.56 | 0.56 | 99 | 1016.6 |
| 20260507123813 | 13 | 341 | 0.0 | 1.6 | 0.00 | 0.56 | 0.56 | 99 | 1016.5 |
| 20260507123310 | 13 | 341 | 0.0 | 1.6 | 0.00 | 0.56 | 0.56 | 99 | 1016.4 |
| 20260507122806 | 13 | 249 | 0.0 | 4.8 | 0.00 | 0.56 | 0.56 | 99 | 1016.3 |
| 20260507122306 | 13 | 16 | 0.0 | 3.2 | 0.00 | 0.56 | 0.56 | 99 | 1016.3 |
| 20260507121758 | 13 | 67 | 0.0 | 1.6 | 0.00 | 0.56 | 0.56 | 99 | 1016.4 |
| 20260507121254 | 13 | 346 | 0.0 | 0.0 | 0.00 | 0.56 | 0.56 | 99 | 1016.3 |
| 20260507120750 | 13 | 301 | 1.6 | 3.2 | 0.00 | 0.56 | 0.56 | 99 | 1016.3 |
| 20260507120247 | 13 | 324 | 1.6 | 1.6 | 0.00 | 0.56 | 0.56 | 99 | 1016.5 |
| 20260507115743 | 13 | 53 | 0.0 | 3.2 | 0.00 | 0.56 | 0.56 | 99 | 1016.2 |
| 20260507115239 | 13 | 249 | 0.0 | 3.2 | 0.00 | 0.56 | 0.56 | 99 | 1016.3 |
| 20260507114734 | 13 | 124 | 0.0 | 0.0 | 0.00 | 0.56 | 0.56 | 99 | 1016.3 |
| 20260507114232 | 13 | 23 | 0.0 | 1.6 | 0.00 | 0.56 | 0.56 | 99 | 1016.2 |
| 20260507113730 | 13 | 136 | 0.0 | 0.0 | 0.00 | 0.56 | 0.56 | 99 | 1016.0 |
| 20260507113226 | 13 | 55 | 0.0 | 1.6 | 0.00 | 0.56 | 0.56 | 99 | 1016.0 |
| 20260507112724 | 13 | 291 | 3.2 | 4.8 | 0.00 | 0.56 | 0.56 | 99 | 1016.0 |
| 20260507112221 | 13 | 289 | 3.2 | 3.2 | 0.00 | 0.56 | 0.56 | 99 | 1015.6 |
| 20260507111718 | 13 | 3 | 0.0 | 3.2 | 0.00 | 0.56 | 0.56 | 99 | 1015.7 |
| 20260507111215 | 13 | 39 | 0.0 | 1.6 | 0.00 | 0.56 | 0.56 | 99 | 1015.7 |
| 20260507110711 | 13 | 37 | 0.0 | 1.6 | 0.00 | 0.56 | 0.56 | 99 | 1015.5 |
| 20260507110207 | 13 | 342 | 1.6 | 3.2 | 0.00 | 0.56 | 0.56 | 99 | 1015.7 |
| 20260507105704 | 13 | 273 | 0.0 | 1.6 | 0.00 | 0.56 | 0.56 | 99 | 1015.4 |
| 20260507105200 | 13 | 345 | 1.6 | 1.6 | 0.00 | 0.56 | 0.56 | 99 | 1015.3 |
| 20260507104658 | 14 | 117 | 0.0 | 0.0 | 0.00 | 0.56 | 0.56 | 99 | 1015.4 |
| 20260507104154 | 14 | 303 | 3.2 | 3.2 | 0.00 | 0.56 | 0.56 | 99 | 1015.3 |
| 20260507103650 | 14 | 82 | 3.2 | 3.2 | 0.00 | 0.56 | 0.56 | 99 | 1014.9 |
| 20260507103147 | 14 | 19 | 0.0 | 1.6 | 0.00 | 0.56 | 0.56 | 99 | 1015.1 |
| 20260507102643 | 14 | 269 | 0.0 | 1.6 | 0.00 | 0.56 | 0.56 | 99 | 1015.1 |
| 20260507102140 | 14 | 129 | 0.0 | 1.6 | 0.00 | 0.56 | 0.56 | 99 | 1014.9 |
| 20260507101636 | 14 | 186 | 0.0 | 1.6 | 0.00 | 0.56 | 0.56 | 99 | 1015.0 |
| 20260507101131 | 14 | 248 | 1.6 | 3.2 | 0.00 | 0.56 | 0.56 | 99 | 1015.2 |
| 20260507100629 | 14 | 312 | 0.0 | 1.6 | 0.00 | 0.56 | 0.56 | 99 | 1015.3 |
| 20260507100127 | 14 | 321 | 0.0 | 3.2 | 0.00 | 0.56 | 0.56 | 99 | 1015.5 |
| 20260507095625 | 14 | 31 | 1.6 | 3.2 | 0.00 | 0.56 | 0.56 | 99 | 1015.4 |
| 20260507095121 | 14 | 113 | 0.0 | 1.6 | 0.18 | 0.56 | 0.56 | 99 | 1015.2 |
| 20260507094617 | 14 | 346 | 1.6 | 1.6 | 0.18 | 0.56 | 0.56 | 99 | 1015.4 |
| 20260507094114 | 15 | 148 | 0.0 | 1.6 | 0.13 | 0.53 | 0.53 | 99 | 1015.7 |
| 20260507093612 | 14 | 67 | 1.6 | 3.2 | 0.61 | 0.53 | 0.53 | 99 | 1015.3 |
| 20260507093111 | 14 | 27 | 1.6 | 1.6 | 0.79 | 0.51 | 0.51 | 99 | 1015.5 |
| 20260507092606 | 14 | 90 | 0.0 | 3.2 | 0.30 | 0.43 | 0.43 | 99 | 1015.3 |
| 20260507092103 | 14 | 83 | 0.0 | 0.0 | 0.18 | 0.38 | 0.38 | 99 | 1015.5 |
| 20260507091600 | 14 | 260 | 1.6 | 4.8 | 0.18 | 0.38 | 0.38 | 99 | 1015.9 |
| 20260507091056 | 14 | 280 | 0.0 | 4.8 | 0.00 | 0.36 | 0.36 | 99 | 1015.9 |
| 20260507090552 | 15 | 287 | 1.6 | 4.8 | 0.13 | 0.36 | 0.36 | 99 | 1015.6 |
| 20260507090049 | 15 | 260 | 1.6 | 4.8 | 0.13 | 0.36 | 0.36 | 99 | 1015.0 |
| 20260507085546 | 15 | 335 | 3.2 | 3.2 | 0.18 | 0.33 | 0.33 | 99 | 1014.9 |
| 20260507085043 | 15 | 128 | 0.0 | 1.6 | 0.48 | 0.33 | 0.33 | 99 | 1014.5 |
| 20260507084539 | 15 | 29 | 1.6 | 1.6 | 0.61 | 0.30 | 0.30 | 99 | 1014.8 |
| 20260507084037 | 15 | 178 | 0.0 | 0.0 | 0.61 | 0.25 | 0.25 | 99 | 1015.3 |
| 20260507083533 | 15 | 198 | 0.0 | 4.8 | 0.43 | 0.20 | 0.20 | 99 | 1015.5 |
| 20260507083030 | 15 | 284 | 1.6 | 1.6 | 0.13 | 0.15 | 0.15 | 99 | 1015.7 |
| 20260507082526 | 15 | 232 | 0.0 | 1.6 | 0.00 | 0.13 | 0.13 | 99 | 1015.6 |
| 20260507082022 | 15 | 309 | 1.6 | 3.2 | 0.00 | 0.13 | 0.13 | 99 | 1015.2 |
| 20260507081519 | 15 | 317 | 3.2 | 6.4 | 0.00 | 0.13 | 0.13 | 99 | 1015.1 |
| 20260507081016 | 15 | 297 | 3.2 | 3.2 | 0.00 | 0.13 | 0.13 | 99 | 1014.9 |
| 20260507080511 | 15 | 333 | 1.6 | 3.2 | 0.00 | 0.13 | 0.13 | 99 | 1015.6 |
| 20260507080008 | 15 | 344 | 0.0 | 3.2 | 0.00 | 0.13 | 0.13 | 99 | 1015.2 |
| 20260507075503 | 15 | 66 | 0.0 | 1.6 | 0.00 | 0.13 | 0.13 | 99 | 1015.0 |
| 20260507075000 | 15 | 28 | 0.0 | 3.2 | 0.00 | 0.13 | 0.13 | 99 | 1015.3 |
| 20260507074457 | 16 | 253 | 1.6 | 3.2 | 0.00 | 0.13 | 0.13 | 99 | 1015.2 |
| 20260507073955 | 16 | 344 | 3.2 | 3.2 | 0.00 | 0.13 | 0.13 | 99 | 1014.9 |
| 20260507073451 | 16 | 298 | 3.2 | 4.8 | 0.00 | 0.13 | 0.13 | 99 | 1015.2 |
| 20260507072948 | 16 | 265 | 1.6 | 4.8 | 0.00 | 0.13 | 0.13 | 99 | 1015.3 |
| 20260507072445 | 16 | 351 | 1.6 | 4.8 | 0.00 | 0.13 | 0.13 | 99 | 1015.0 |
| 20260507071943 | 16 | 313 | 1.6 | 4.8 | 0.00 | 0.13 | 0.13 | 99 | 1014.9 |
| 20260507071440 | 17 | 305 | 3.2 | 3.2 | 0.00 | 0.13 | 0.13 | 99 | 1014.6 |
| 20260507070936 | 17 | 75 | 3.2 | 6.4 | 0.00 | 0.13 | 0.13 | 99 | 1014.4 |
| 20260507070434 | 17 | 82 | 4.8 | 4.8 | 0.00 | 0.13 | 0.13 | 99 | 1014.7 |
| 20260507065930 | 17 | 98 | 3.2 | 4.8 | 0.00 | 0.13 | 0.13 | 99 | 1014.9 |
| 20260507065427 | 17 | 119 | 3.2 | 4.8 | 0.00 | 0.13 | 0.13 | 99 | 1015.2 |
| 20260507064924 | 17 | 123 | 1.6 | 3.2 | 0.00 | 0.13 | 0.13 | 99 | 1015.3 |
| 20260507064422 | 17 | 127 | 0.0 | 0.0 | 0.00 | 0.13 | 0.13 | 99 | 1014.9 |
| 20260507063920 | 17 | 305 | 0.0 | 1.6 | 0.00 | 0.13 | 0.13 | 99 | 1015.4 |
| 20260507063417 | 17 | 307 | 1.6 | 3.2 | 0.00 | 0.13 | 0.13 | 99 | 1015.5 |
| 20260507062914 | 17 | 331 | 0.0 | 0.0 | 0.00 | 0.13 | 0.13 | 99 | 1015.4 |
| 20260507062411 | 17 | 194 | 0.0 | 0.0 | 0.00 | 0.13 | 0.13 | 99 | 1015.5 |
| 20260507061908 | 17 | 217 | 0.0 | 0.0 | 0.00 | 0.13 | 0.13 | 99 | 1015.5 |
| 20260507061406 | 17 | 175 | 3.2 | 4.8 | 0.00 | 0.13 | 0.13 | 99 | 1015.5 |
| 20260507060904 | 17 | 196 | 6.4 | 9.7 | 0.00 | 0.13 | 0.13 | 99 | 1015.4 |
| 20260507060401 | 17 | 191 | 6.4 | 6.4 | 0.00 | 0.13 | 0.13 | 99 | 1015.8 |
| 20260507055858 | 17 | 207 | 0.0 | 0.0 | 0.00 | 0.13 | 0.13 | 99 | 1016.1 |
| 20260507055352 | 17 | 184 | 0.0 | 1.6 | 0.00 | 0.13 | 0.13 | 99 | 1015.7 |
| 20260507054850 | 17 | 197 | 0.0 | 0.0 | 0.00 | 0.13 | 0.13 | 99 | 1015.8 |
| 20260507054346 | 17 | 239 | 1.6 | 3.2 | 0.00 | 0.13 | 0.13 | 99 | 1015.6 |
| 20260507053843 | 17 | 189 | 0.0 | 1.6 | 0.00 | 0.13 | 0.13 | 99 | 1015.7 |
| 20260507053341 | 17 | 233 | 0.0 | 1.6 | 0.00 | 0.13 | 0.13 | 99 | 1015.1 |
| 20260507052839 | 17 | 151 | 0.0 | 0.0 | 0.00 | 0.13 | 0.13 | 99 | 1015.4 |